COSMOS 1275 DEB, 12695

Orbit data source: Space-Track

COSMOS 1275 DEB, 12695 is space debris in LEO originally from a launch on Thu, 04 Jun 1981 UTC launched from the Plesetsk Missile And Space Complex (PKMTR). Debris objects in space refer to the collection of defunct objects orbiting the Earth. Examples of debris include non-operational satellites, rocket bodies, and fragments generated from explosions, collisions, or faulty payload assembly.

Loading next visibility...
COSMOS 1275 DEB details
Identifier
12695, 1981-053AP
Orbit
LEO
Last TLE update1 day ago
Origin
Flag of CISVMF (CIS)
ManufacturerUnknown
MissionSpacecraft
Bus & MotorUnknown
MassUnknown
Launch date (UTC)
1981-06-04 (44 years ago)
Launch vehicleUnknown
Launch site
Plesetsk Missile And Space Complex (PKMTR)
Object type
Payload
Rocket body
Debris
Shape & HBRUnknown
Radar Cross SectionSmall (<0.1 m²)

Expand to show TLE details & history

TLE from 1 day ago
0 COSMOS 1275 DEB
1 12695U 81053AP  25024.74341133  .00002867  00000-0  29478-2 0  9994
2 12695  83.0079 274.2890 0109562  11.0910  62.6281 13.73253724159253
Epoch: 2025-01-24T17:50Z
Definitive object data (Epoch: 2025-01-24T17:50:30.738Z)
Latitude73.40574°
Longitude-93.47358°
Altitude964.126 km
Speed7.394 km/s
True Right ascension19h 53m 49s
True Declination73° 18' 50"
Sunlit
Object was in daylight at TLE epoch
Visualization TLE readout
Latitude18.59305°
Longitude59.24692°
Altitude1,062.048 km
Speed7.287 km/s
Apparent Right ascension06h 53m 59s
Apparent Declination-8° 25' 36"
Sunlit
Object is in full shadow
Visualization observer readout
Local Sidereal Time20:05:33
Azimuth31.723° NE
Elevation-54.69°
Doppler factor1
Orbital elements
Apogee altitude1,065.734 km
Perigee altitude904.388 km
Semi-major axis7,363.198 km
Eccentricity0.0109562
Inclination83.0079°
RAAN274.289°
Arg. of periapsis11.091°
True anomaly63.75002°
Mean anomaly62.6281°
Eccentric anomaly63.18836°
Mean motion3.43513 °/min
BSTAR0.0029478
Orbital period104.8 mins
Loading maneuver chart data...
Loading historical data...
Loading historical data...
Loading historical data...
Loading historical data...
Loading historical data...
Loading historical data...
Loading historical data...

COSMOS 1275 DEB Visibility forecast

Observer location: undefined°, undefined

Span
Click to sort rows by Start time (UTC) header in descending order
Start Az.
Max El. time (UTC)
Max El. Az.
Max El.
End time (UTC)
End Az.
10 mins2025-01-26 03:17:43.715Z20.572° NNE2025-01-26 03:22:43.715Z81.461° E25.949°2025-01-26 03:27:43.715Z131.771° SE
10 mins2025-01-26 05:03:43.715Z331.861° NNW2025-01-26 05:07:43.715Z276.597° WNW34.599°2025-01-26 05:13:43.715Z202.753° SW
10 mins2025-01-26 16:48:43.715Z171.297° S2025-01-26 16:53:43.715Z68.76° E41.779°2025-01-26 16:58:43.715Z13.681° NNE
5 mins2025-01-26 18:37:43.715Z270.75° WNW2025-01-26 18:39:43.715Z294.466° NW16.181°2025-01-26 18:42:43.715Z326.645° NNW
|